This is the latest recevied weather packets stored in our database for station/object SP1BMW-13. If no packets are shown the sender has not sent any weather packets the latest 10 day(s).
| Time | Temp. | Humidity | Pressure | Rain* | Wind** | Luminosity | Snow |
|---|---|---|---|---|---|---|---|
| 1778067891 | 9.44° C | 94% | 1005.7 hPa | 0.25 mm | 1.79 m/s, 22° | 129 W/m² | - |
| 1778067831 | 9.44° C | 94% | 1005.6 hPa | 0.25 mm | 0 m/s | 141 W/m² | - |
| 1778067771 | 9.44° C | 94% | 1005.6 hPa | 0.25 mm | 1.34 m/s, 339° | 150 W/m² | - |
| 1778067712 | 9.44° C | 94% | 1005.4 hPa | 0.25 mm | 1.79 m/s, 299° | 147 W/m² | - |
| 1778067652 | 9.44° C | 94% | 1005.5 hPa | 0.25 mm | 1.34 m/s, 278° | 161 W/m² | - |
| 1778067591 | 9.44° C | 94% | 1005.5 hPa | 0.51 mm | 1.34 m/s, 332° | 167 W/m² | - |
| 1778067532 | 9.44° C | 94% | 1005.6 hPa | 0.51 mm | 0.89 m/s, 333° | 163 W/m² | - |
| 1778067473 | 9.44° C | 94% | 1005.5 hPa | 0.51 mm | 2.68 m/s, 268° | 165 W/m² | - |
| 1778067412 | 9.44° C | 94% | 1005.5 hPa | 0.51 mm | 1.79 m/s, 296° | 177 W/m² | - |
| 1778067352 | 9.44° C | 94% | 1005.6 hPa | 0.51 mm | 0.45 m/s, 17° | 170 W/m² | - |
| 1778067291 | 9.44° C | 94% | 1005.6 hPa | 0.51 mm | 1.34 m/s, 13° | 152 W/m² | - |
| 1778067232 | 10° C | 94% | 1005.4 hPa | 0.51 mm | 1.79 m/s, 286° | 123 W/m² | - |
| 1778067172 | 10° C | 94% | 1005.6 hPa | 0.51 mm | 2.24 m/s, 44° | 104 W/m² | - |
| 1778067113 | 10° C | 94% | 1005.5 hPa | 0.51 mm | 1.79 m/s, 358° | 103 W/m² | - |
| 1778067053 | 10° C | 94% | 1005.6 hPa | 0.51 mm | 1.34 m/s, 340° | 100 W/m² | - |
| 1778066992 | 10° C | 95% | 1005.4 hPa | 0.51 mm | 0.45 m/s, 26° | 88 W/m² | - |
| 1778066932 | 10° C | 94% | 1005.7 hPa | 0.51 mm | 0 m/s | 76 W/m² | - |
| 1778066872 | 10° C | 94% | 1005.5 hPa | 0.51 mm | 1.34 m/s, 345° | 67 W/m² | - |
| 1778066812 | 10° C | 94% | 1005.4 hPa | 0.51 mm | 0.89 m/s, 343° | 75 W/m² | - |
| 1778066752 | 10° C | 94% | 1005.4 hPa | 0.51 mm | 0.45 m/s, 4° | 110 W/m² | - |
| 1778066692 | 10° C | 95% | 1005.4 hPa | 0.51 mm | 1.34 m/s, 346° | 123 W/m² | - |
| 1778066632 | 10° C | 95% | 1005.4 hPa | 0.51 mm | 1.34 m/s, 11° | 129 W/m² | - |
| 1778066572 | 10° C | 95% | 1005.4 hPa | 0.51 mm | 0 m/s | 130 W/m² | - |
| 1778066512 | 10° C | 94% | 1005.3 hPa | 0.25 mm | 0.45 m/s, 324° | 125 W/m² | - |
| 1778066452 | 10° C | 94% | 1005.6 hPa | 0.25 mm | 0 m/s | 115 W/m² | - |
* Rain latest hour (hover to see other rain measurements)
** Current wind speed in m/s (hover to see current wind gust speed)